Simultaneous Nadir Overpasses (SNOs) Predictions

Prediction of SNOs between AQUA and NPP Satellite Orbit:

Table of predicted SNOs for the next 14.0 days since TLE Epoch: 10/21/2023
Index Date (AQUA) Time (AQUA) Lat,Lon (AQUA) SZA (AQUA ) Date (NPP) Time (NPP) Lat,Lon (NPP) SZA (NPP ) Distance(km) Time Diff (sec)
1 10/23/2023 10:59:20 80.91, -70.80 100.00 10/23/2023 10:58:58 80.91, -70.96 100.04 2.80 22
2 10/23/2023 11:48:42 -80.96, 97.57 80.10 10/23/2023 11:49:40 -80.96, 97.48 80.12 1.56 58
3 10/26/2023 00:43:59 -80.94, -96.52 79.20 10/26/2023 00:43:37 -80.94, -96.46 79.20 1.16 22
4 10/26/2023 01:33:21 80.98, 71.62 100.74 10/26/2023 01:34:20 80.97, 71.50 100.72 2.12 59
5 10/28/2023 14:28:38 80.94,-122.71 101.66 10/28/2023 14:28:19 80.93,-122.89 101.69 3.19 19
6 10/28/2023 15:18:01 -80.97, 45.36 78.40 10/28/2023 15:19:02 -80.97, 45.22 78.42 2.48 61
7 10/31/2023 04:13:16 -80.94,-148.79 77.53 10/31/2023 04:13:00 -80.94,-148.87 77.51 1.43 16
8 10/31/2023 05:02:37 80.99, 19.63 102.38 10/31/2023 05:03:41 81.00, 19.79 102.31 2.87 64
9 11/02/2023 17:57:51 80.95,-174.75 103.26 11/02/2023 17:57:40 80.95,-174.75 103.27 0.19 11



Historial Predications of SNOs between AQUA and NPP
